This is the latest recevied weather packets stored in our database for station/object K7DC. If no packets are shown the sender has not sent any weather packets the latest 10 day(s).
| Time | Temp. | Humidity | Pressure | Rain* | Wind** | Luminosity | Snow |
|---|---|---|---|---|---|---|---|
| 1787969146 | 33.89° C | 32% | 1012.9 hPa | 0 mm | - | 0 W/m² | - |
| 1787968841 | 34.44° C | 31% | 1012.9 hPa | 0 mm | - | 1 W/m² | - |
| 1787968540 | 35° C | 31% | 1012.8 hPa | 0 mm | - | 2 W/m² | - |
| 1787968236 | 35° C | 29% | 1012.8 hPa | 0 mm | - | 4 W/m² | - |
| 1787967931 | 35.56° C | 29% | 1012.7 hPa | 0 mm | - | 7 W/m² | - |
| 1787967627 | 35.56° C | 29% | 1012.6 hPa | 0 mm | - | 11 W/m² | - |
| 1787967327 | 35.56° C | 29% | 1012.4 hPa | 0 mm | - | 16 W/m² | - |
| 1787967023 | 35.56° C | 28% | 1012.5 hPa | 0 mm | - | 20 W/m² | - |
| 1787966720 | 36.11° C | 28% | 1012.6 hPa | 0 mm | - | 26 W/m² | - |
| 1787966420 | 36.11° C | 28% | 1012.7 hPa | 0 mm | - | 29 W/m² | - |
| 1787966114 | 36.11° C | 28% | 1012.7 hPa | 0 mm | - | 31 W/m² | - |
| 1787965813 | 36.11° C | 28% | 1012.8 hPa | 0 mm | - | 32 W/m² | - |
| 1787965508 | 36.67° C | 27% | 1012.7 hPa | 0 mm | - | 33 W/m² | - |
| 1787965209 | 36.67° C | 27% | 1012.9 hPa | 0 mm | - | 34 W/m² | - |
| 1787964903 | 37.22° C | 27% | 1012.7 hPa | 0 mm | - | 35 W/m² | - |
| 1787964598 | 37.22° C | 27% | 1012.9 hPa | 0 mm | - | 39 W/m² | - |
| 1787964292 | 37.22° C | 25% | 1012.9 hPa | 0 mm | - | 44 W/m² | - |
| 1787963992 | 37.22° C | 26% | 1012.6 hPa | 0 mm | - | 52 W/m² | - |
| 1787963687 | 37.22° C | 25% | 1012.8 hPa | 0 mm | - | 62 W/m² | - |
| 1787963387 | 37.22° C | 25% | 1012.7 hPa | 0 mm | - | 70 W/m² | - |
| 1787963083 | 37.22° C | 25% | 1012.7 hPa | 0 mm | - | 77 W/m² | - |
| 1787962781 | 37.22° C | 26% | 1012.7 hPa | 0 mm | - | 81 W/m² | - |
| 1787962480 | 37.78° C | 27% | 1012.6 hPa | 0 mm | - | 86 W/m² | - |
| 1787962179 | 37.78° C | 24% | 1012.6 hPa | 0 mm | - | 89 W/m² | - |
| 1787961874 | 37.78° C | 24% | 1012.6 hPa | 0 mm | - | 90 W/m² | - |
* Rain latest hour (hover to see other rain measurements)
** Current wind speed in m/s (hover to see current wind gust speed)